STARLINK-1422 (45696 NORAD) Tracking and Keplerian Element Data

This shows tracking and keplerian element data for the satellite.

Feedback or suggestion? Click here.




ElementValue
Catalog45696
NameSTARLINK-1422
Epoch Orbit1077
Epoch Day219.25001157
Epoch Year2020
RAAN221.6697
Inclination52.9957
Eccentricity0.0001295
Argument of Perigee83.7603
Mean Anonmoly333.4215
Mean Motion15.26556359
Decay Rate-0.01017261
L11 45696U 20035AR 20219.25001157 -.01017261 00000-0 -41726-1 0 9996
L22 45696 52.9957 221.6697 0001295 83.7603 333.4215 15.26556359 10779

Live tracking and technical data element details for STARLINK-1422 (NORAD 45696). STARLINK-1422 can be tracked NOW for your location showing map with azimuth and elevation plus other details from your city location.

Track the satellite on the map from your city or location and see movement details for azimuth, elevation, latitude, longitude, range, height, and movement on the map or in text.







IsCatalogInMostPopularTable: catalog: 45696, numindb: 9
Update: records affected: 1



GetName: 45696 STARLINK-1422

Hit Count: updated at: Sat, 08 Aug 2020 00:28:03 GMT